www.pogodaiklimat.ru

Погода и климат >> Архив погоды >> Украина >> Тетерев


ПОГОДА в Тетереве

  • Прогноз погоды в Тетереве
  • Монитор погоды в Тетереве

АРХИВ ПОГОДЫ в Тетереве

Время (UTC), дата Ветер
(напр.,м/с)
 
Видим.   Явления Облачность Т
(С)
Тd
(С)
f
(%)
Тe
(С)
Тes
(С)
Комфортность P
(гПа)
Po
(гПа)
Тmin
(С)
Tmax
(С)
R
(мм)
R24
(мм)
S
(см)
12 18.06 СЗ 3 10 км 8/8 1000 м
[Cu med, cong]
+26.8 +17.6 57 +31 +31 душно 1017.0 1001.9
15 18.06 З 3 10 км 4/4 1000 м
[Cu med, cong]
+26.7 +16.0 52 +30 +33 душно 1016.0 1000.9
18 18.06 СВ 1 10 км 3/0
[Ci fib]
+24.1 +15.6 59 +27 +27 жарко 1016.0 1000.8 +28.0
21 18.06 штиль 0 10 км 1/0
[Ci fib]
+19.0 +16.0 83 +20 +20 1018.0 1002.5
00 19.06 штиль 0 10 км 9/0 2000 м
[Ac und]
+17.2 +15.5 90 +17 +17 1018.0 1002.4
03 19.06 штиль 0 10 км 9/0 2000 м
[Ac und]
+18.4 +15.3 82 +19 +19 1017.0 1001.5
06 19.06 СВ 1 10 км ясно +24.4 +14.8 55 +27 +36 жарко 1017.0 1001.8 +16.7
09 19.06 СВ 2 10 км 8/8 1000 м
[Cu med, cong]
+27.2 +15.2 48 +30 +30 душно 1017.0 1001.9
12 19.06 В 1 10 км 6/6 1000 м
[Cu med, cong]
+28.8 +17.0 49 +33 +40 очень
душно
1015.0 1000.0
15 19.06 СВ 1 10 км 5/5 1000 м
[Cu med, cong]
+29.2 +15.3 43 +32 +34 душно 1014.0 999.1
18 19.06 штиль 0 10 км 4/0
[Ci fib]
+26.0 +13.5 46 +28 +28 жарко 1014.0 998.9 +30.7
21 19.06 штиль 0 10 км 3/0
[Ci fib]
+19.8 +13.7 68 +21 +21 комфорт 1015.0 999.6
00 20.06 штиль 0 10 км 3/0
[Ci fib]
+17.1 +13.4 79 +17 +17 1015.0 999.4
03 20.06 штиль 0 10 км 1/0
[Ci fib]
+16.7 +13.2 80 +17 +17 1015.0 999.4
06 20.06 ЮВ 2 10 км 6/3 1000 м
[Cu Sc Cs]
+27.3 +22.0 73 +35 +38 очень
душно
1015.0 1000.0 +15.7
09 20.06 ЮЗ 2 10 км 8/8 1000 м
[Cu med, cong Ci fib]
+29.3 +16.1 45 +32 +32 душно 1014.0 999.1
12 20.06 ЮВ 2 10 км 8/6 1000 м
[Cu med, cong Cs]
+30.2 +14.7 39 +32 +32 жарко 1013.0 998.1
15 20.06 ЮВ 2 10 км 8/5 600 м
[Cb calv Cs]
+30.4 +16.8 44 +34 +34 очень
душно
1013.0 998.1
18 20.06 ЮВ 1 10 км 8/3 600 м
[Cb calv Ci fib]
+27.2 +16.2 51 +31 +31 душно 1013.0 998.0 +32.1
21 20.06 штиль 0 10 км 4/0
[Ci fib]
+23.6 +15.4 60 +27 +27 жарко 1014.0 998.8
00 21.06 штиль 0 10 км 4/0 2000 м
[Ac trans Ci fib]
+20.8 +15.3 71 +24 +24 комфорт 1015.0 999.6
03 21.06 штиль 0 10 км 1/1 1000 м
[Cu med, cong]
+19.8 +15.2 75 +22 +22 комфорт 1015.0 999.6
06 21.06 штиль 0 10 км 1/0
[Ci fib]
+27.8 +16.7 51 +31 +42 душно 1015.0 1000.0 +18.6
09 21.06 В 2 10 км 5/3 1000 м
[Cu hum Ci]
+31.3 +12.6 32 +32 +39 жарко 1015.0 1000.1
12 21.06 В 2 10 км 8/6 1000 м
[Cu med, cong Ci fib]
+32.2 +11.4 28 +32 +32 жарко 1014.0 999.2
15 21.06 ЮВ 3 10 км 6/4 1000 м
[Cu med, cong Cs]
+31.4 +12.2 31 +32 +34 жарко 1013.0 998.2
18 21.06 ЮВ 1 10 км 5/1 1000 м
[Cu med, cong Cs]
+29.0 +14.4 41 +31 +31 жарко 1014.0 999.0 +34.6
21 21.06 ЮВ 1 10 км 5/0
[Ci fib]
+24.1 +14.2 54 +27 +27 жарко 1015.0 999.8
00 22.06 В 1 10 км 4/0
[Ci fib]
+20.4 +14.3 68 +24 +24 комфорт 1015.0 999.6
03 22.06 штиль 0 10 км 3/1 1000 м
[Cu med, cong Ci fib]
+19.0 +13.8 72 +20 +21 1015.0 999.5
06 22.06 ЮВ 2 10 км 8/4 1000 м
[Cu hum Ac trans Ci fib]
+27.8 +16.4 50 +31 +31 душно 1016.0 1001.0 +17.7
09 22.06 ЮВ 1 10 км 5/3 1000 м
[Cu hum Ci fib]
+32.6 +12.2 29 +33 +41 жарко 1016.0 1001.2
12 22.06 ЮВ 1 10 км 8/8 1000 м
[Cb calv]
+32.9 +13.0 30 +34 +34 очень
жарко
1015.0 1000.2
15 22.06 ЮВ 2 10 км 9/8 1000 м
[Cb calv Cs]
+29.3 +16.8 47 +33 +33 душно 1014.0 999.1
18 22.06 ЮВ 1 10 км зарница 10/8 600 м
[Cb cap Cs]
+25.1 +17.3 62 +29 +29 душно 1016.0 1000.8 +34.5
21 22.06 СЗ 2 10 км 8/3 600 м
[Cb calv Ac cuf Cs]
+21.2 +18.0 82 +25 +25 комфорт 1017.0 1001.6
00 23.06 штиль 0 10 км 8/0 2000 м
[Ac trans Ci fib]
+19.4 +17.4 88 +21 +21 комфорт 1017.0 1001.5
03 23.06 СВ 2 10 км 9/0 2000 м
[Ac trans Cs]
+18.9 +16.5 86 +21 +21 комфорт 1016.0 1000.5
06 23.06 В 3 10 км слаб. ливневой дождь, в посл. час гроза 9/5 600 м
[Cb calv Ac und]
+19.2 +16.4 84 +21 +21 комфорт 1016.0 1000.5 +17.7 0.8
09 23.06 СВ 1 10 км 8/0 2000 м
[Ac cast Cc]
+25.2 +19.6 71 +31 +31 очень
душно
1016.0 1000.9
12 23.06 С 3 10 км 8/0 2000 м
[Ac und Cc]
+28.7 +21.2 64 +36 +36 очень
душно
1016.0 1001.0
15 23.06 ЮЗ 2 10 км в посл. час ливневой дождь {гроза} 8/3 1000 м
[Cb calv Ac und Cs]
+26.5 +18.9 63 +32 +32 очень
душно
1016.0 1000.9
18 23.06 Ю 1 10 км {гроза, ливн. осадки} 9/8 1000 м
[Cb calv Ac trans Cc]
+25.1 +18.0 65 +29 +29 душно 1017.0 1001.8 +29.5 0.0
21 23.06 С 1 10 км {гроза} 6/0 2000 м
[Ac trans Cs]
+21.2 +16.6 75 +25 +25 комфорт 1017.0 1001.6
00 24.06 С 1 10 км {гроза} 3/0 2000 м
[Ac trans]
+19.2 +15.9 81 +22 +22 комфорт 1019.0 1003.5
03 24.06 С 2 10 км 10/10 800 м
[Cb calv]
+19.1 +16.9 87 +21 +21 комфорт 1019.0 1003.5
06 24.06 СВ 2 10 км 8/8 1000 м
[Sc]
+22.0 +16.5 71 +26 +26 душно 1020.0 1004.6 +18.0
09 24.06 СЗ 3 10 км ясно +25.9 +17.3 59 +30 +44 душно 1020.0 1004.8
12 24.06 СЗ 4 10 км 3/3 1000 м
[Cu hum]
+29.1 +19.1 55 +35 +42 очень
душно
1020.0 1005.0
15 24.06 СЗ 3 10 км 3 балла +29.9 +15.9 43 +33 +36 душно 1020.0 1005.0
18 24.06 СЗ 2 10 км ясно +25.8 +16.9 58 +30 +30 душно 1022.0 1006.8 +31.0
21 24.06 СЗ 2 10 км ясно +21.3 +14.7 66 +24 +24 комфорт 1023.0 1007.5
00 25.06 В 1 10 км ясно +18.8 +13.0 69 +21 +21 комфорт 1024.0 1008.4
03 25.06 С 1 10 км ясно +17.9 +12.3 70 +19 +20 1025.0 1009.3
06 25.06 З 1 10 км 3 балла +23.2 +13.4 54 +26 +33 жарко 1026.0 1010.6 +16.4
09 25.06 СЗ 2 10 км 3 балла +26.4 +12.4 42 +28 +40 жарко 1026.0 1010.7

 

Местоположение метеостанции Тетерев (Киевская область, Украина): широта 50.70 долгота 29.58 высота над уровнем моря 132 м.

В архиве по умолчанию представлена погода в Тетереве за последнюю неделю. Архивные данные за месяц целиком и за предыдущие месяцы, начиная с января 2011 года, Вы можете получить, выбрав интересующий диапазон дат из раскрывающегося списка и нажав кнопку "Ввод!".


*Определитесь, кто Вы:
робот инопланетянин человек

Внимание! Время в таблицах - всемирное. Для получения местного времени необходимо прибавить поправку, которая равна 2 ч.

Смотрите также архив погоды в соседних городах и на ближайших метеорологических станциях:

Погода в Вышгороде (Киевская область, Украина) (65 км)
Погода в Коростени (Житомирская область, Украина) (71 км)
Погода в Фастове (Киевская область, Украина) (73 км)
Погода в Киеве (город Киев, Украина) (78 км)
Погода в Чернобыле (Киевская область, Украина) (79 км)
Погода в Житомире (Житомирская область, Украина) (80 км)
Погода в Овруче (Житомирская область, Украина) (89 км)
Погода в Остере (Черниговская область, Украина) (95 км)
Погода в Борисполе (Киевская область, Украина) (107 км)
Погода в Белополе (Винницкая область, Украина) (109 км)

Пояснения к столбцам:

Ветер - указаны скорость ветра в м/с - средняя за 10 мин, порывы в срок и между сроками (в фигурных скобках) и направление, откуда дует ветер: С - северный, СВ - северо-восточный, В - восточный, ЮВ - юго-восточный, Ю - южный, ЮЗ - юго-западный, З - западный, СЗ - северо-западный.
Видимость - горизонтальная дальность видимости в метрах или километрах. При видимости от 1 до 10 км при отсутствии осадков обычно наблюдается дымка, при ухудшении видимости до 1 км и менее - туман. В сухую погоду видимость может ухудшаться дымом, пылью или мглою.
Явления - указаны атмосферные явления, наблюдавшиеся в срок или в последний час перед сроком; фигурными скобками обозначены явления, наблюдавшиеся между сроками (за 1-3 часа до срока); квадратными скобками обозначены град или гололедные отложения с указанием их диаметра в мм.
Облачность - указаны через наклонную черту общая и нижняя облачность в баллах и высота нижней границы облаков в метрах; квадратными скобками обозначены формы облаков: Ci - перистые, Cs - перисто-слоистые, Cc - перисто-кучевые, Ac - высококучевые, As - высокослоистые, Sc - слоисто-кучевые, Ns - слоисто-дождевые, Cu - кучевые, Cb - кучево-дождевые. Подробнее классификацию облаков см. в Атласе облаков (PDF).
T - Температура воздуха - температура, измеренная на высоте 2 м над землей.
Td - Температура точки росы - температура, при понижении до которой содержащийся в воздухе водяной пар достигнет насыщения.
f - Относительная влажность воздуха - влажноcть воздуха, измеренная на высоте 2 м над землей.
Te - Эффективная температура - температура, которую ощущает одетый по сезону человек в тени. Характеристика душности погоды. При расчете учитывается влияние влажности воздуха и скорости ветра на теплоощущения человека.
Tes - Эффективная температура на солнце - температура, которую ощущает человек, с поправкой на солнечный нагрев. Характеристика знойности погоды. Зависит от высоты солнца над горизонтом, облачности и скорости ветра. Ночью, в пасмурную погоду, а также при ветре 12 м/с и более поправка равна нулю.
P - Атмосферное давление - приведенное к уровню моря атмосферное давление.
Po - Атмосферное давление - измеренное на уровне метеостанции атмосферное давление.
Tmin - Минимальная температура - минимум температуры воздуха на высоте 2 м над землей.
Tmax - Максимальная температура - максимум температуры воздуха на высоте 2 м над землей.
R - Количество осадков - Количество выпавших осадков за период времени, мм. При наведении курсора мыши на число - период времени, за который выпало указанное количество осадков.
R24 - Количество осадков - Количество выпавших осадков за 24 часа, мм.
S - Снежный покров - Высота снежного покрова, см. При наведении курсора мыши на число - состояние снежного покрова и степень покрытия местности в баллах.